DW7680 Weather Reports


Display with metric or nautical units.
time (UTC)temp
F
wind
direction
speed
MPH
gust
MPH
rain 1hr
in
rain 24hr
in
rain mn
in
humidity
%
barometer
mb
20260504214504 62 261 13.0 23.0 0.00 0.00 0.00 28 1007.7
20260504213006 62 244 8.0 18.0 0.00 0.00 0.00 26 1007.7
20260504211504 62 259 12.0 27.0 0.00 0.00 0.00 26 1008.1
20260504210003 64 246 9.0 19.0 0.00 0.00 0.00 27 1007.8
20260504204502 64 273 10.0 22.0 0.00 0.00 0.00 25 1008.0
20260504203003 65 286 9.0 21.0 0.00 0.00 0.00 23 1008.3
20260504201503 66 248 8.0 21.0 0.00 0.00 0.00 22 1008.3
20260504200008 67 265 6.0 15.0 0.00 0.00 0.00 22 1008.2
20260504194505 66 251 5.0 18.0 0.00 0.00 0.00 25 1008.1
20260504193009 66 275 6.0 15.0 0.00 0.00 0.00 27 1008.0
20260504191502 64 302 9.0 17.0 0.00 0.00 0.00 26 1008.3
20260504190008 63 317 9.0 21.0 0.00 0.00 0.00 26 1008.2
20260504184503 64 295 6.0 22.0 0.00 0.00 0.00 27 1008.6
20260504183003 64 257 8.0 21.0 0.00 0.00 0.00 27 1008.9
20260504181504 63 261 8.0 15.0 0.00 0.00 0.00 28 1009.4
20260504180003 63 263 9.0 20.0 0.00 0.00 0.00 28 1009.6
20260504174503 63 281 9.0 16.0 0.00 0.00 0.00 28 1009.3
20260504173004 62 266 9.0 19.0 0.00 0.00 0.00 29 1009.4
20260504171507 62 232 7.0 17.0 0.00 0.00 0.00 32 1009.5
20260504081502 54 257 1.0 4.0 0.00 0.00 0.00 58 1012.9
20260504050002 48 252 1.0 4.0 0.00 0.01 0.01 68 1015.6
20260504044503 50 273 0.0 3.0 0.00 0.01 0.01 65 1016.0
20260504043002 50 271 0.0 2.0 0.00 0.01 0.01 65 1015.9
20260504041503 51 271 1.0 3.0 0.00 0.01 0.01 63 1015.9
20260504040005 52 271 1.0 3.0 0.00 0.01 0.01 61 1015.8
20260504034505 52 271 1.0 4.0 0.00 0.01 0.01 62 1015.9
20260504033003 53 271 0.0 3.0 0.00 0.01 0.01 59 1015.8
20260504031503 53 271 2.0 4.0 0.00 0.01 0.01 59 1016.0
20260504030005 53 271 0.0 2.0 0.00 0.01 0.01 59 1016.0
20260504024508 54 271 0.0 6.0 0.00 0.01 0.01 57 1015.9
20260504023004 55 248 2.0 5.0 0.00 0.01 0.01 56 1015.9
20260504021504 56 228 2.0 7.0 0.00 0.01 0.01 55 1015.9
20260504020012 56 244 5.0 14.0 0.00 0.01 0.01 54 1015.9
20260504014503 57 245 5.0 14.0 0.00 0.01 0.01 53 1015.5
20260504013003 57 229 6.0 12.0 0.00 0.01 0.01 53 1015.9
20260504011503 58 242 5.0 13.0 0.00 0.01 0.01 51 1016.1
20260504010003 58 240 7.0 12.0 0.00 0.01 0.01 51 1016.2
20260504004503 59 229 7.0 14.0 0.00 0.01 0.01 48 1016.0
20260504003003 60 248 7.0 16.0 0.00 0.01 0.01 47 1016.2
20260504001503 60 234 6.0 16.0 0.00 0.01 0.01 47 1016.4
20260504000002 60 273 7.0 14.0 0.00 0.01 0.01 45 1016.4
20260503234504 61 249 8.0 16.0 0.00 0.01 0.01 44 1016.6
20260503233004 61 238 7.0 15.0 0.00 0.01 0.01 43 1016.7
20260503231503 60 213 7.0 19.0 0.00 0.01 0.01 43 1016.8
20260503230003 60 229 8.0 15.0 0.00 0.02 0.01 43 1017.1
20260503224504 61 236 10.0 19.0 0.00 0.02 0.01 43 1017.3
20260503223003 62 215 5.0 18.0 0.00 0.02 0.01 41 1017.5
20260503221504 61 225 5.0 11.0 0.00 0.02 0.01 42 1017.5
20260503220014 61 270 11.0 19.0 0.00 0.02 0.01 43 1017.9